RPB7259 SKCL-SKBO

Flight info

Callsign RPB7259
Flight time 0h 30m
Altitude 23000
Route ULQ1K ULQ W1 TOLIM TOLI5W
Aircraft B738/M-SDE3FGHIRWY/S

Departure

Time 2026-04-24 23:47
Airport Alfonso Bonilla Aragon International Airport (SKCL)

Arrival

Time 2026-04-25 00:18
Airport El Dorado International Airport (SKBO)
Time Latitude Longitude Altitude Speed Heading
2026-04-24 23:01 3.53645 -76.38609 1007 ft 0 kts 278°
2026-04-24 23:36 3.53642 -76.38593 3162 ft 4 kts 279°
2026-04-24 23:36 3.53638 -76.38566 3165 ft 4 kts 280°
2026-04-24 23:36 3.53634 -76.38542 3163 ft 4 kts 264°
2026-04-24 23:36 3.53644 -76.38523 3166 ft 4 kts 201°
2026-04-24 23:37 3.53663 -76.38518 3162 ft 1 kts 189°
2026-04-24 23:37 3.53666 -76.38517 3162 ft 0 kts 189°
2026-04-24 23:43 3.53644 -76.38520 3162 ft 6 kts 185°
2026-04-24 23:43 3.53594 -76.38528 3162 ft 8 kts 185°
2026-04-24 23:43 3.53551 -76.38492 3162 ft 9 kts 124°
2026-04-24 23:43 3.53487 -76.38474 3161 ft 11 kts 189°
2026-04-24 23:44 3.53406 -76.38489 3163 ft 13 kts 190°
2026-04-24 23:44 3.53314 -76.38505 3160 ft 14 kts 190°
2026-04-24 23:44 3.53210 -76.38524 3160 ft 15 kts 190°
2026-04-24 23:44 3.53109 -76.38537 3161 ft 14 kts 189°
2026-04-24 23:45 3.53024 -76.38555 3161 ft 9 kts 190°
2026-04-24 23:45 3.52967 -76.38536 3160 ft 8 kts 129°
2026-04-24 23:45 3.52958 -76.38510 3160 ft 0 kts 100°
2026-04-24 23:46 3.52957 -76.38507 3160 ft 2 kts 100°
2026-04-24 23:46 3.52966 -76.38471 3159 ft 9 kts 55°
2026-04-24 23:46 3.53016 -76.38403 3158 ft 15 kts 37°
2026-04-24 23:46 3.53204 -76.38359 3157 ft 56 kts
2026-04-24 23:47 3.53816 -76.38254 3165 ft 121 kts
2026-04-24 23:47 3.54839 -76.38079 3164 ft 176 kts
2026-04-24 23:47 3.56066 -76.37827 3809 ft 178 kts
2026-04-24 23:47 3.57316 -76.37601 4466 ft 189 kts
2026-04-24 23:48 3.58608 -76.37379 5258 ft 187 kts
2026-04-24 23:48 3.59899 -76.37168 5993 ft 188 kts
2026-04-24 23:48 3.61208 -76.36952 6580 ft 201 kts
2026-04-24 23:48 3.62670 -76.36706 6832 ft 220 kts
2026-04-24 23:49 3.64208 -76.36435 7230 ft 231 kts 12°
2026-04-24 23:49 3.65842 -76.35985 7390 ft 255 kts 17°
2026-04-24 23:49 3.67606 -76.35423 7566 ft 279 kts 18°
2026-04-24 23:49 3.69496 -76.34810 8119 ft 289 kts 18°
2026-04-24 23:50 3.71422 -76.34189 8896 ft 292 kts 17°
2026-04-24 23:50 3.73371 -76.33566 9676 ft 296 kts 17°
2026-04-24 23:50 3.75344 -76.32941 10377 ft 300 kts 17°
2026-04-24 23:50 3.77348 -76.32309 11110 ft 303 kts 17°
2026-04-24 23:51 3.79365 -76.31675 11844 ft 305 kts 16°
2026-04-24 23:51 3.81378 -76.31044 12524 ft 309 kts 16°
2026-04-24 23:51 3.83444 -76.30397 13210 ft 313 kts 16°
2026-04-24 23:51 3.85534 -76.29744 13887 ft 318 kts 15°
2026-04-24 23:52 3.87719 -76.29061 14060 ft 339 kts 16°
2026-04-24 23:52 3.90039 -76.28337 14212 ft 359 kts 16°
2026-04-24 23:52 3.92490 -76.27571 14333 ft 378 kts 16°
2026-04-24 23:52 3.95058 -76.26768 14510 ft 393 kts 16°
2026-04-24 23:53 3.97697 -76.25941 14903 ft 399 kts 16°
2026-04-24 23:53 4.00353 -76.25109 15430 ft 401 kts 16°
2026-04-24 23:53 4.03022 -76.24274 15976 ft 403 kts 16°
2026-04-24 23:53 4.05704 -76.23423 16472 ft 406 kts 19°
2026-04-24 23:54 4.08185 -76.22039 16895 ft 413 kts 39°
2026-04-24 23:54 4.10100 -76.19901 17405 ft 416 kts 57°
2026-04-24 23:54 4.11325 -76.17272 17908 ft 419 kts 68°
2026-04-24 23:54 4.12360 -76.14534 18347 ft 422 kts 69°
2026-04-24 23:55 4.13383 -76.11759 18725 ft 425 kts 69°
2026-04-24 23:55 4.14416 -76.08980 19154 ft 427 kts 69°
2026-04-24 23:55 4.15466 -76.06199 19588 ft 428 kts 69°
2026-04-24 23:55 4.16521 -76.03440 19990 ft 430 kts 68°
2026-04-24 23:56 4.17602 -76.00635 20382 ft 432 kts 68°
2026-04-24 23:56 4.18692 -75.97816 20778 ft 434 kts 68°
2026-04-24 23:56 4.19782 -75.94995 21160 ft 436 kts 68°
2026-04-24 23:56 4.20878 -75.92158 21538 ft 438 kts 68°
2026-04-24 23:57 4.21985 -75.89303 21895 ft 440 kts 68°
2026-04-24 23:57 4.23109 -75.86442 22313 ft 440 kts 68°
2026-04-24 23:57 4.24227 -75.83611 22855 ft 436 kts 67°
2026-04-24 23:57 4.25336 -75.80802 23048 ft 432 kts 67°
2026-04-24 23:58 4.26450 -75.77982 23065 ft 440 kts 68°
2026-04-24 23:58 4.27583 -75.75106 23068 ft 446 kts 67°
2026-04-24 23:58 4.28730 -75.72195 23077 ft 452 kts 68°
2026-04-24 23:58 4.29892 -75.69240 23075 ft 458 kts 67°
2026-04-24 23:59 4.31064 -75.66262 23073 ft 463 kts 68°
2026-04-24 23:59 4.32248 -75.63248 23092 ft 467 kts 68°
2026-04-24 23:59 4.33441 -75.60211 23083 ft 469 kts 68°
2026-04-24 23:59 4.34634 -75.57175 23101 ft 468 kts 67°
2026-04-25 00:00 4.35827 -75.54139 23119 ft 468 kts 68°
2026-04-25 00:00 4.37018 -75.51106 23139 ft 467 kts 68°
2026-04-25 00:00 4.38282 -75.48111 23158 ft 467 kts 63°
2026-04-25 00:00 4.39782 -75.45230 23177 ft 467 kts 60°
2026-04-25 00:01 4.41399 -75.42414 23147 ft 466 kts 58°
2026-04-25 00:01 4.43047 -75.39612 23127 ft 466 kts 58°
2026-04-25 00:01 4.44687 -75.36798 23100 ft 466 kts 59°
2026-04-25 00:01 4.46272 -75.34026 23060 ft 451 kts 59°
2026-04-25 00:02 4.47805 -75.31303 23058 ft 446 kts 60°
2026-04-25 00:02 4.49310 -75.28603 23031 ft 443 kts 60°
2026-04-25 00:02 4.50810 -75.25902 23023 ft 444 kts 60°
2026-04-25 00:02 4.52313 -75.23193 22566 ft 447 kts 60°
2026-04-25 00:03 4.53814 -75.20487 22065 ft 441 kts 60°
2026-04-25 00:03 4.55296 -75.17818 21646 ft 433 kts 60°
2026-04-25 00:03 4.56718 -75.15255 21507 ft 420 kts 60°
2026-04-25 00:03 4.58119 -75.12733 21333 ft 408 kts 60°
2026-04-25 00:04 4.59481 -75.10283 21175 ft 397 kts 60°
2026-04-25 00:04 4.60805 -75.07898 20996 ft 388 kts 60°
2026-04-25 00:04 4.62115 -75.05541 20580 ft 386 kts 60°
2026-04-25 00:04 4.63417 -75.03199 20202 ft 383 kts 60°
2026-04-25 00:05 4.64712 -75.00868 19808 ft 382 kts 60°
2026-04-25 00:05 4.65999 -74.98550 19402 ft 381 kts 60°
2026-04-25 00:05 4.67280 -74.96243 19170 ft 375 kts 60°
2026-04-25 00:05 4.68533 -74.93985 18989 ft 367 kts 60°
2026-04-25 00:06 4.69760 -74.91773 18846 ft 358 kts 60°
2026-04-25 00:06 4.70957 -74.89617 18701 ft 350 kts 60°
2026-04-25 00:06 4.72130 -74.87502 18510 ft 345 kts 60°
2026-04-25 00:06 4.73302 -74.85393 18145 ft 347 kts 60°
2026-04-25 00:07 4.74471 -74.83286 17838 ft 344 kts 60°
2026-04-25 00:07 4.75604 -74.81182 17524 ft 342 kts 63°
2026-04-25 00:07 4.76544 -74.79011 17282 ft 337 kts 67°
2026-04-25 00:07 4.77388 -74.76831 17027 ft 333 kts 68°
2026-04-25 00:08 4.78205 -74.74675 16782 ft 329 kts 68°
2026-04-25 00:08 4.79019 -74.72543 16533 ft 326 kts 68°
2026-04-25 00:08 4.79838 -74.70428 16305 ft 324 kts 68°
2026-04-25 00:08 4.80656 -74.68336 16060 ft 321 kts 68°
2026-04-25 00:09 4.81464 -74.66286 15829 ft 318 kts 67°
2026-04-25 00:09 4.82276 -74.64234 15594 ft 316 kts 67°
2026-04-25 00:09 4.83085 -74.62195 15354 ft 313 kts 67°
2026-04-25 00:09 4.83888 -74.60173 15142 ft 310 kts 68°
2026-04-25 00:10 4.84680 -74.58179 14924 ft 307 kts 68°
2026-04-25 00:10 4.85469 -74.56195 14657 ft 306 kts 68°
2026-04-25 00:10 4.86257 -74.54209 14375 ft 305 kts 68°
2026-04-25 00:10 4.87043 -74.52232 14091 ft 305 kts 68°
2026-04-25 00:11 4.87825 -74.50257 13750 ft 305 kts 69°
2026-04-25 00:11 4.88143 -74.48889 13480 ft 305 kts 88°
2026-04-25 00:11 4.87870 -74.46094 12915 ft 300 kts 97°
2026-04-25 00:11 4.87616 -74.44021 12470 ft 299 kts 96°
2026-04-25 00:12 4.87392 -74.41975 12240 ft 289 kts 95°
2026-04-25 00:12 4.87189 -74.40007 12064 ft 279 kts 95°
2026-04-25 00:12 4.86884 -74.38109 11956 ft 275 kts 111°
2026-04-25 00:12 4.85937 -74.36506 11982 ft 260 kts 127°
2026-04-25 00:13 4.84840 -74.35130 11951 ft 244 kts 129°
2026-04-25 00:13 4.83817 -74.33856 11948 ft 226 kts 128°
2026-04-25 00:13 4.82882 -74.32640 11950 ft 217 kts 127°
2026-04-25 00:13 4.81958 -74.31417 11782 ft 222 kts 127°
2026-04-25 00:14 4.81024 -74.30174 11509 ft 223 kts 127°
2026-04-25 00:14 4.80110 -74.28960 11225 ft 213 kts 126°
2026-04-25 00:14 4.79264 -74.27836 11030 ft 195 kts 126°
2026-04-25 00:14 4.78472 -74.26784 10762 ft 184 kts 126°
2026-04-25 00:15 4.77708 -74.25766 10542 ft 182 kts 126°
2026-04-25 00:15 4.76940 -74.24746 10336 ft 186 kts 126°
2026-04-25 00:15 4.76161 -74.23710 10096 ft 185 kts 126°
2026-04-25 00:15 4.75393 -74.22689 9840 ft 182 kts 126°
2026-04-25 00:16 4.74633 -74.21680 9614 ft 182 kts 126°
2026-04-25 00:16 4.73872 -74.20667 9360 ft 181 kts 126°
2026-04-25 00:16 4.73109 -74.19655 9126 ft 182 kts 126°
2026-04-25 00:16 4.72364 -74.18653 8814 ft 175 kts 126°
2026-04-25 00:17 4.71646 -74.17703 8554 ft 169 kts 126°
2026-04-25 00:17 4.70940 -74.16759 8394 ft 169 kts 127°
2026-04-25 00:17 4.70293 -74.15905 8371 ft 128 kts 126°
2026-04-25 00:17 4.69887 -74.15374 8372 ft 54 kts 127°
2026-04-25 00:18 4.69754 -74.15172 8371 ft 30 kts 111°
2026-04-25 00:18 4.69732 -74.15093 8371 ft 0 kts 103°
2026-04-25 00:18 4.69729 -74.15083 8371 ft 3 kts 102°
2026-04-25 00:18 4.69724 -74.15057 8371 ft 4 kts 100°
2026-04-25 00:19 4.69720 -74.15020 8370 ft 7 kts 93°
2026-04-25 00:19 4.69716 -74.14964 8369 ft 8 kts 98°
2026-04-25 00:19 4.69708 -74.14921 8369 ft 4 kts 100°
2026-04-25 00:19 4.69708 -74.14882 8369 ft 7 kts 73°
2026-04-25 00:20 4.69734 -74.14834 8369 ft 9 kts 49°
2026-04-25 00:20 4.69772 -74.14804 8369 ft 7 kts 37°
2026-04-25 00:20 4.69818 -74.14770 8369 ft 9 kts 37°
2026-04-25 00:20 4.69858 -74.14735 8369 ft 4 kts 75°
2026-04-25 00:21 4.69844 -74.14703 8369 ft 6 kts 124°
2026-04-25 00:21 4.69813 -74.14663 8369 ft 8 kts 128°
2026-04-25 00:21 4.69775 -74.14613 8369 ft 9 kts 127°
2026-04-25 00:21 4.69739 -74.14565 8369 ft 8 kts 127°
2026-04-25 00:22 4.69730 -74.14536 8369 ft 2 kts 67°
2026-04-25 00:22 4.69741 -74.14524 8369 ft 2 kts 45°
2026-04-25 00:22 4.69748 -74.14518 8369 ft 2 kts 39°
2026-04-25 00:22 4.69761 -74.14507 8369 ft 0 kts 39°